TimeCDT,TemperatureF,Dew PointF,Humidity,Sea Level PressureIn,VisibilityMPH,Wind Direction,Wind SpeedMPH,Gust SpeedMPH,PrecipitationIn,Events,Conditions,WindDirDegrees,DateUTC
12:15 AM,58.1,44.2,60,29.79,10.0,East,6.9,-,N/A,,Clear,90,2014-05-06 05:15:00
12:35 AM,57.7,44.2,61,29.78,10.0,East,8.1,-,N/A,,Clear,90,2014-05-06 05:35:00
12:55 AM,57.4,44.2,62,29.78,10.0,East,6.9,-,N/A,,Clear,90,2014-05-06 05:55:00
1:15 AM,57.0,44.2,62,29.76,10.0,East,6.9,-,N/A,,Clear,80,2014-05-06 06:15:00
1:35 AM,57.0,44.2,62,29.75,10.0,East,8.1,-,N/A,,Clear,80,2014-05-06 06:35:00
1:55 AM,56.7,44.2,63,29.74,10.0,East,6.9,-,N/A,,Clear,90,2014-05-06 06:55:00
2:15 AM,56.7,44.1,63,29.73,10.0,East,9.2,-,N/A,,Clear,90,2014-05-06 07:15:00
2:35 AM,56.7,44.1,63,29.73,10.0,East,8.1,-,N/A,,Clear,100,2014-05-06 07:35:00
6:55 AM,54.9,43.7,66,29.69,10.0,ESE,13.8,19.6,N/A,,Clear,110,2014-05-06 11:55:00
7:15 AM,55.2,43.7,65,29.68,10.0,ESE,10.4,19.6,N/A,,Clear,110,2014-05-06 12:15:00
7:35 AM,55.8,43.9,64,29.68,10.0,ESE,13.8,19.6,N/A,,Clear,110,2014-05-06 12:35:00
7:55 AM,56.7,44.2,63,29.68,10.0,ESE,12.7,-,N/A,,Clear,110,2014-05-06 12:55:00
8:15 AM,57.9,45.0,62,29.68,10.0,ESE,15.0,19.6,N/A,,Clear,120,2014-05-06 13:15:00
8:55 AM,60.8,46.4,59,29.68,10.0,ESE,12.7,18.4,N/A,,Clear,120,2014-05-06 13:55:00
9:15 AM,62.8,47.8,58,29.68,10.0,ESE,12.7,-,N/A,,Clear,110,2014-05-06 14:15:00
9:35 AM,64.4,48.9,57,29.68,10.0,ESE,15.0,20.7,N/A,,Clear,120,2014-05-06 14:35:00
9:55 AM,65.8,50.0,57,29.67,10.0,ESE,13.8,18.4,N/A,,Clear,120,2014-05-06 14:55:00
10:15 AM,66.7,50.2,55,29.66,10.0,SE,15.0,19.6,N/A,,Clear,140,2014-05-06 15:15:00
10:35 AM,67.6,51.4,56,29.67,10.0,SE,13.8,19.6,N/A,,Clear,140,2014-05-06 15:35:00
10:55 AM,68.9,52.2,55,29.65,10.0,ESE,12.7,-,N/A,,Clear,120,2014-05-06 15:55:00
11:15 AM,70.7,52.5,52,29.64,10.0,SE,15.0,-,N/A,,Clear,130,2014-05-06 16:15:00
11:35 AM,71.4,53.2,53,29.63,10.0,ESE,16.1,19.6,N/A,,Clear,110,2014-05-06 16:35:00
11:55 AM,72.7,53.8,51,29.63,10.0,SE,13.8,19.6,N/A,,Clear,130,2014-05-06 16:55:00
12:15 PM,74.3,54.3,50,29.62,10.0,SE,12.7,18.4,N/A,,Clear,130,2014-05-06 17:15:00
12:35 PM,74.5,54.0,49,29.61,10.0,ESE,12.7,17.3,N/A,,Clear,120,2014-05-06 17:35:00
12:55 PM,76.3,55.0,48,29.62,10.0,SE,11.5,16.1,N/A,,Clear,140,2014-05-06 17:55:00
1:15 PM,77.0,54.9,46,29.60,10.0,SE,10.4,17.3,N/A,,Clear,130,2014-05-06 18:15:00
1:35 PM,77.7,55.2,46,29.59,10.0,ESE,11.5,21.9,N/A,,Clear,120,2014-05-06 18:35:00
1:55 PM,78.8,55.4,44,29.59,10.0,ESE,16.1,23.0,N/A,,Clear,120,2014-05-06 18:55:00
2:15 PM,79.3,55.9,44,29.58,10.0,SE,12.7,25.3,N/A,,Clear,140,2014-05-06 19:15:00
2:35 PM,79.5,55.2,43,29.57,10.0,ESE,15.0,21.9,N/A,,Clear,110,2014-05-06 19:35:00
3:15 PM,80.8,56.7,43,29.56,10.0,SSE,15.0,23.0,N/A,,Clear,150,2014-05-06 20:15:00
3:35 PM,81.3,57.2,44,29.54,10.0,SE,16.1,20.7,N/A,,Clear,130,2014-05-06 20:35:00
3:55 PM,81.5,56.8,43,29.53,10.0,SE,17.3,21.9,N/A,,Clear,130,2014-05-06 20:55:00
4:15 PM,81.7,57.6,44,29.52,10.0,SE,18.4,25.3,N/A,,Clear,140,2014-05-06 21:15:00
4:35 PM,82.6,57.9,43,29.52,10.0,SE,12.7,25.3,N/A,,Clear,130,2014-05-06 21:35:00
4:55 PM,82.8,58.1,43,29.52,10.0,SE,17.3,21.9,N/A,,Clear,130,2014-05-06 21:55:00
5:15 PM,82.9,58.5,43,29.52,10.0,SSE,17.3,21.9,N/A,,Clear,160,2014-05-06 22:15:00
5:35 PM,83.8,58.1,41,29.52,10.0,South,18.4,25.3,N/A,,Clear,170,2014-05-06 22:35:00
5:55 PM,84.2,58.1,41,29.52,10.0,South,15.0,24.2,N/A,,Clear,170,2014-05-06 22:55:00
6:15 PM,84.4,57.7,40,29.51,10.0,SSE,12.7,24.2,N/A,,Clear,160,2014-05-06 23:15:00
6:35 PM,84.4,57.9,40,29.50,10.0,SSE,15.0,19.6,N/A,,Clear,160,2014-05-06 23:35:00
6:55 PM,84.0,57.9,41,29.50,10.0,SSE,15.0,20.7,N/A,,Clear,160,2014-05-06 23:55:00
7:15 PM,83.5,57.4,41,29.50,10.0,SSE,15.0,-,N/A,,Clear,160,2014-05-07 00:15:00
7:35 PM,82.8,58.3,43,29.51,10.0,SSE,12.7,18.4,N/A,,Clear,150,2014-05-07 00:35:00
7:55 PM,82.0,58.5,45,29.51,10.0,SE,10.4,-,N/A,,Clear,140,2014-05-07 00:55:00
8:15 PM,81.0,58.1,46,29.51,10.0,SE,10.4,-,N/A,,Clear,140,2014-05-07 01:15:00
8:35 PM,79.7,58.5,48,29.52,10.0,SE,8.1,-,N/A,,Clear,140,2014-05-07 01:35:00
8:55 PM,79.5,59.0,49,29.52,10.0,SE,8.1,-,N/A,,Clear,130,2014-05-07 01:55:00
9:15 PM,78.6,59.2,51,29.52,10.0,SE,6.9,-,N/A,,Clear,140,2014-05-07 02:15:00
9:35 PM,77.4,59.2,53,29.52,10.0,SE,6.9,-,N/A,,Clear,140,2014-05-07 02:35:00
9:55 PM,76.8,59.4,55,29.52,10.0,SSE,8.1,-,N/A,,Clear,150,2014-05-07 02:55:00
10:15 PM,76.1,59.2,56,29.53,10.0,SE,8.1,-,N/A,,Clear,140,2014-05-07 03:15:00
10:55 PM,76.1,59.5,56,29.53,10.0,SE,8.1,-,N/A,,Clear,130,2014-05-07 03:55:00
11:15 PM,74.3,59.9,61,29.53,10.0,ESE,6.9,-,N/A,,Clear,120,2014-05-07 04:15:00
11:35 PM,73.2,59.4,62,29.52,10.0,ESE,5.8,-,N/A,,Clear,110,2014-05-07 04:35:00
11:55 PM,73.2,59.7,63,29.52,10.0,SE,9.2,-,N/A,,Clear,130,2014-05-07 04:55:00